Location: *
(58.4167°N, 22.5000°E)
Time: 01:42:34
(UTC+00:00)

Mayak - Pass Details

Date: 22 September 2019
Orbit: 581 x 602 km, 97.6° (Epoch: 18 October)

Event Time Altitude Azimuth Distance (km) Brightness Sun altitude
Rises 22:15:45 0° 12° (NNE) 2,821 3.3 -31.4°
Reaches altitude 10° 22:18:00 10° 5° (N) 1,916 2.2 -31.4°
Enters shadow 22:20:14 27° 343° (NNW) 1,143 0.7 -31.4°
